Weather History for Ord, NE

Change the Weather History Date:

Wednesday, February 8, 2012

  Actual Average Record
Temperature  
Mean Temperature 12 °F 26 °F  
Max Temperature 24 °F 39 °F 70 °F (2000)
Min Temperature -1 °F 14 °F -6 °F (2011)
Degree Days  
Heating Degree Days 53    
Month to date heating degree days 312  
Cooling Degree Days 0    
Month to date cooling degree days 0  
Year to date cooling degree days 0  
Moisture  
Dew Point 10 °F    
Average Humidity 85    
Maximum Humidity 96    
Minimum Humidity 74    
Precipitation  
Precipitation 0.00 in 0.02 in 0.55 in (1942)
Month to date precipitation 0.47 0.14  
Year to date precipitation 0.60 0.51  
Sea Level Pressure  
Sea Level Pressure 30.47 in    
Wind  
Wind Speed 5 mph (SSW)    
Max Wind Speed 14 mph    
Max Gust Speed 18 mph    
Visibility 10 miles    
Events      
T = Trace of Precipitation, MM = Missing Value Source: NWS Daily Summary

Daily Weather History Graph

Daily Weather History Graph

Search for Another Location

Airport:

Trip Planner

Search our weather history database for the weather conditions in past years. The results will help you decide how hot, cold, wet, or windy it might be!

Date:

Astronomy

Feb. 08, 2012 Rise Set
Actual Time 7:40 AM CST 5:59 PM CST
Civil Twilight 7:11 AM CST 6:28 PM CST
Nautical Twilight 6:38 AM CST 7:01 PM CST
Astronomical Twilight 6:06 AM CST 7:34 PM CST
Moon 7:23 PM CST (2/8) 7:43 AM CST (2/8)
Length of Visible Light 11h 17m
Length of Day
10h 19m
Full, 99% of the Moon is Illuminated
Feb 8
Full
Feb 14
Last Quarter
Feb 21
New
Feb 29
First Quarter
Mar 8
Full

Hourly Weather History & Observations

Time (CST) Temp. Windchill Dew Point Humidity Pressure Visibility Wind Dir Wind Speed Gust Speed Precip Events Conditions
12:53 AM 6.1 °F -0.9 °F 3.0 °F 87% 30.62 in 10.0 mi SSW 3.5 mph - N/A   Clear
1:53 AM 5.0 °F -4.1 °F 3.0 °F 92% 30.61 in 10.0 mi NNW 4.6 mph - N/A   Clear
2:53 AM 5.0 °F - 1.9 °F 87% 30.61 in 10.0 mi Calm Calm - N/A   Clear
3:53 AM 3.9 °F - 1.0 °F 88% 30.59 in 10.0 mi Calm Calm - N/A   Clear
4:53 AM 1.9 °F - -0.9 °F 88% 30.59 in 10.0 mi Calm Calm - N/A   Clear
5:53 AM -0.0 °F - -4.0 °F 83% 30.58 in 10.0 mi Calm Calm - N/A   Clear
6:53 AM -0.9 °F - -5.1 °F 83% 30.58 in 10.0 mi Calm Calm - N/A   Clear
7:53 AM 1.9 °F - -2.0 °F 83% 30.58 in 10.0 mi Calm Calm - N/A   Clear
8:24 AM 3.2 °F - 1.4 °F 92% 30.44 in 10.0 mi Calm Calm - N/A   Mostly Cloudy
8:53 AM 3.0 °F - -0.0 °F 87% 30.57 in 10.0 mi Calm Calm - N/A   Mostly Cloudy
9:23 AM 8.6 °F - 5.0 °F 85% 30.44 in 10.0 mi Calm Calm - N/A   Overcast
9:53 AM 10.9 °F - 8.1 °F 88% 30.57 in 10.0 mi Calm Calm - N/A   Overcast
10:20 AM 12.2 °F - 10.4 °F 92% 30.42 in 10.0 mi Calm Calm - N/A   Overcast
10:53 AM 16.0 °F - 12.9 °F 88% 30.55 in 10.0 mi Calm Calm - N/A   Overcast
11:53 AM 19.9 °F 7.9 °F 16.0 °F 85% 30.52 in 10.0 mi SW 11.5 mph - N/A   Overcast
12:53 PM 21.9 °F 11.7 °F 17.1 °F 82% 30.49 in 10.0 mi SW 9.2 mph - N/A   Overcast
1:17 PM 21.2 °F 10.1 °F 17.6 °F 86% 30.35 in 10.0 mi SSW 10.4 mph - N/A   Overcast
1:53 PM 23.0 °F 14.7 °F 17.1 °F 78% 30.46 in 10.0 mi SW 6.9 mph - N/A   Overcast
2:09 PM 23.0 °F 11.7 °F 17.6 °F 80% 30.33 in 10.0 mi SSW 11.5 mph - N/A   Overcast
2:53 PM 24.1 °F 13.1 °F 18.0 °F 77% 30.42 in 10.0 mi SSW 11.5 mph - N/A   Overcast
3:53 PM 24.1 °F 15.2 °F 17.1 °F 75% 30.41 in 10.0 mi SW 8.1 mph - N/A   Overcast
4:53 PM 23.0 °F 12.4 °F 18.0 °F 81% 30.40 in 10.0 mi South 10.4 mph - N/A   Overcast
5:53 PM 23.0 °F 13.9 °F 17.1 °F 78% 30.40 in 10.0 mi SSW 8.1 mph - N/A   Overcast
6:53 PM 23.0 °F 15.8 °F 17.1 °F 78% 30.42 in 10.0 mi SW 5.8 mph - N/A   Overcast
7:53 PM 23.0 °F 15.8 °F 18.0 °F 81% 30.42 in 10.0 mi SW 5.8 mph - N/A   Overcast
8:53 PM 24.1 °F 17.0 °F 18.0 °F 77% 30.40 in 10.0 mi SSW 5.8 mph - N/A   Overcast
9:53 PM 23.0 °F 14.7 °F 18.0 °F 81% 30.38 in 10.0 mi SSW 6.9 mph - N/A   Overcast
10:53 PM 23.0 °F 12.4 °F 19.0 °F 85% 30.36 in 10.0 mi SSW 10.4 mph - N/A   Overcast
11:53 PM 24.1 °F 16.0 °F 19.0 °F 81% 30.34 in 10.0 mi South 6.9 mph - N/A   Overcast